Date String (YYYY-MM-DD hh:mm:ss) UTC,Instrument flags,absolute air pressure of the measurement (hPa),sample flow rate (lpm),inlet stack bypass flow (lpm),air temperature of the measurement (°C),ambient temperature measured by the external sensor (°C),aerosol sample conditioner tube jacket temperature (°C),OPC LED temperature (°C),internal box temperature (°C),relative humidity of the measurement (%),span deviation,mass concentration of particles derived from Lorenz-Mie calculation of OPC scattering (μg/m³),mass concentration of particles derived from Lorenz-Mie calculation of OPC scattering (μg/m³),mass concentration of particles derived from Lorenz-Mie calculation of OPC scattering (μg/m³)
DateTimeUTC,F1_M11,P_M11,Q1_M11,Q2_M11,T1_M11,T2_M11,T3_M11,T4_M11,T5_M11,U1_M11,ZSPAN_M11,X2_M11,X0_M11,X1_M11
2024-02-10 20:00:00,SystemResetWarning,0825.6,5.00,000.00,018.3,017.8,000.0,026.7,020.0,19.7,0000.0,0005.42,0007.73,0005.27
2024-02-10 20:01:00,SystemResetWarning,0825.6,5.00,000.00,018.3,017.9,000.0,026.7,020.0,19.7,0000.0,0005.42,0007.72,0005.27
2024-02-10 20:02:00,SystemResetWarning,0825.6,5.00,000.00,018.3,017.8,000.0,026.7,020.0,19.7,0000.0,0005.44,0007.75,0005.28
2024-02-10 20:03:00,SystemResetWarning,0825.6,5.00,000.00,018.3,017.9,000.0,026.7,020.0,19.6,0000.0,0005.44,0007.58,0005.29
2024-02-10 20:04:00,SystemResetWarning,0825.6,5.00,000.00,018.3,017.8,000.0,026.7,020.0,19.4,0000.0,0005.44,0007.15,0005.31
2024-02-10 20:05:00,SystemResetWarning,0825.6,5.00,000.00,018.3,017.8,000.0,026.7,020.0,19.3,0000.0,0005.46,0007.16,0005.33
2024-02-10 20:06:00,SystemResetWarning,0825.6,5.01,000.00,018.3,017.8,000.0,026.7,020.0,19.3,0000.0,0005.48,0007.22,0005.35
2024-02-10 20:07:00,SystemResetWarning,0825.6,5.00,000.00,018.3,017.8,000.0,026.7,020.0,19.4,0000.0,0005.49,0007.21,0005.37
2024-02-10 20:08:00,SystemResetWarning,0825.5,5.00,000.00,018.3,017.8,000.0,026.7,020.0,19.3,0000.0,0005.51,0007.19,0005.39
2024-02-10 20:09:00,SystemResetWarning,0825.5,4.99,000.00,018.3,017.8,000.0,026.7,020.0,19.5,0000.0,0005.57,0007.33,0005.44
2024-02-10 20:10:00,SystemResetWarning,0825.5,5.00,000.00,018.3,017.8,000.0,026.8,020.0,19.8,0000.0,0005.63,0007.44,0005.49
2024-02-10 20:11:00,SystemResetWarning,0825.5,5.01,000.00,018.3,017.8,000.0,026.8,020.0,19.9,0000.0,0005.67,0007.48,0005.53
2024-02-10 20:12:00,SystemResetWarning,0825.4,5.00,000.00,018.3,017.8,000.0,026.7,020.0,20.1,0000.0,0005.74,0007.58,0005.57
2024-02-10 20:13:00,SystemResetWarning,0825.4,4.99,000.00,018.3,017.8,000.0,026.7,020.1,19.9,0000.0,0005.78,0007.61,0005.61
2024-02-10 20:14:00,SystemResetWarning,0825.5,4.99,000.00,018.3,017.8,000.0,026.7,020.0,19.6,0000.0,0005.82,0008.12,0005.66
2024-02-10 20:15:00,SystemResetWarning,0825.4,5.00,000.00,018.3,017.8,000.0,026.7,020.0,19.4,0000.0,0005.88,0008.19,0005.70
2024-02-10 20:16:00,SystemResetWarning,0825.4,5.01,000.00,018.3,017.8,000.0,026.7,020.0,19.2,0000.0,0005.92,0008.25,0005.74
2024-02-10 20:17:00,SystemResetWarning,0825.4,5.01,000.00,018.3,017.9,000.0,026.7,020.0,18.9,0000.0,0005.94,0008.26,0005.76
2024-02-10 20:18:00,SystemResetWarning,0825.4,5.00,000.00,018.3,017.9,000.0,026.7,020.0,18.8,0000.0,0005.98,0008.25,0005.79
2024-02-10 20:19:00,SystemResetWarning,0825.4,5.00,000.00,018.3,017.9,000.0,026.7,020.0,19.0,0000.0,0006.02,0008.28,0005.84
2024-02-10 20:20:00,SystemResetWarning,0825.4,5.00,000.00,018.3,017.9,000.0,026.7,020.0,18.9,0000.0,0006.04,0008.26,0005.88
2024-02-10 20:21:00,SystemResetWarning,0825.4,5.00,000.00,018.3,017.9,000.0,026.7,020.0,18.9,0000.0,0006.07,0008.24,0005.91
2024-02-10 20:22:00,SystemResetWarning,0825.4,5.00,000.00,018.3,017.8,000.0,026.7,020.0,19.0,0000.0,0006.12,0008.28,0005.96
2024-02-10 20:23:00,SystemResetWarning,0825.4,4.99,000.00,018.3,017.8,000.0,026.7,020.0,19.1,0000.0,0006.16,0008.31,0006.00
2024-02-10 20:24:00,SystemResetWarning,0825.4,5.00,000.00,018.3,017.8,000.0,026.7,020.0,19.2,0000.0,0006.23,0008.42,0006.05
2024-02-10 20:25:00,SystemResetWarning,0825.4,5.00,000.00,018.3,017.8,000.0,026.7,020.0,19.5,0000.0,0006.29,0008.19,0006.09
2024-02-10 20:26:00,SystemResetWarning,0825.4,5.00,000.00,018.2,017.8,000.0,026.7,020.0,19.4,0000.0,0006.35,0008.14,0006.13
2024-02-10 20:27:00,SystemResetWarning,0825.4,4.99,000.00,018.2,017.8,000.0,026.7,020.0,19.2,0000.0,0006.38,0008.15,0006.18
2024-02-10 20:28:00,SystemResetWarning,0825.4,5.00,000.00,018.3,017.8,000.0,026.7,020.0,19.2,0000.0,0006.44,0008.77,0006.23
2024-02-10 20:29:00,SystemResetWarning,0825.4,5.00,000.00,018.3,017.8,000.0,026.7,020.1,19.5,0000.0,0006.48,0009.36,0006.29
2024-02-10 20:30:00,SystemResetWarning,0825.4,5.00,000.00,018.3,017.8,000.0,026.7,020.0,19.8,0000.0,0006.55,0009.46,0006.34
2024-02-10 20:31:00,SystemResetWarning,0825.3,5.00,000.00,018.3,017.8,000.0,026.7,020.0,20.0,0000.0,0006.59,0009.51,0006.38
2024-02-10 20:32:00,SystemResetWarning,0825.3,5.00,000.00,018.3,017.8,000.0,026.7,020.0,20.2,0000.0,0006.64,0009.56,0006.41
2024-02-10 20:33:00,SystemResetWarning,0825.3,5.00,000.00,018.3,017.9,000.0,026.7,020.0,19.9,0000.0,0006.66,0010.03,0006.44
2024-02-10 20:34:00,SystemResetWarning,0825.3,5.01,000.00,018.3,017.9,000.0,026.7,020.0,19.8,0000.0,0006.64,0010.27,0006.46
2024-02-10 20:35:00,SystemResetWarning,0825.3,5.01,000.00,018.3,017.9,000.0,026.7,020.0,19.7,0000.0,0006.65,0010.22,0006.48
2024-02-10 20:36:00,SystemResetWarning,0825.3,5.01,000.00,018.3,017.9,000.0,026.7,020.0,19.9,0000.0,0006.66,0010.22,0006.51
2024-02-10 20:37:00,SystemResetWarning,0825.3,5.00,000.00,018.2,017.9,000.0,026.7,020.0,20.0,0000.0,0006.67,0010.30,0006.54
2024-02-10 20:38:00,SystemResetWarning,0825.3,4.99,000.00,018.3,017.8,000.0,026.7,020.0,20.2,0000.0,0006.69,0010.37,0006.57
2024-02-10 20:39:00,SystemResetWarning,0825.3,4.99,000.00,018.3,017.9,000.0,026.7,020.0,19.8,0001.5,0006.72,0010.08,0006.60
2024-02-10 20:40:00,SystemResetWarning,0825.3,4.99,000.00,018.3,017.8,000.0,026.7,020.0,19.9,0002.0,0006.74,0009.45,0006.63
2024-02-10 20:41:00,SystemResetWarning,0825.3,5.00,000.00,018.3,017.8,000.0,026.7,020.0,20.0,0001.3,0006.74,0009.26,0006.64
2024-02-10 20:42:00,SystemResetWarning,0825.3,5.00,000.00,018.2,017.8,000.0,026.7,020.0,20.0,0000.0,0006.76,0009.27,0006.65
2024-02-10 20:43:00,SystemResetWarning,0825.3,5.00,000.00,018.2,017.8,000.0,026.7,020.0,20.1,0000.0,0006.78,0009.29,0006.67
2024-02-10 20:44:00,SystemResetWarning,0825.3,5.00,000.00,018.2,017.8,000.0,026.7,020.0,20.2,0000.0,0006.80,0009.02,0006.69
2024-02-10 20:45:00,SystemResetWarning,0825.3,5.00,000.00,018.3,017.8,000.0,026.7,020.0,20.4,0000.0,0006.85,0008.71,0006.72
2024-02-10 20:46:00,SystemResetWarning,0825.3,5.00,000.00,018.3,017.8,000.0,026.7,020.0,20.0,0000.0,0006.88,0008.74,0006.74
2024-02-10 20:47:00,SystemResetWarning,0825.2,5.00,000.00,018.2,017.8,000.0,026.7,020.0,20.1,0000.0,0006.89,0008.72,0006.76
2024-02-10 20:48:00,SystemResetWarning,0825.3,5.00,000.00,018.2,017.8,000.0,026.7,020.0,20.0,0000.0,0006.90,0008.62,0006.76
2024-02-10 20:49:00,SystemResetWarning,0825.2,5.00,000.00,018.2,017.8,000.0,026.7,020.0,19.6,0000.0,0006.93,0008.59,0006.77
2024-02-10 20:50:00,SystemResetWarning,0825.2,5.00,000.00,018.2,017.8,000.0,026.7,020.0,19.6,0000.0,0006.94,0008.59,0006.79
2024-02-10 20:51:00,SystemResetWarning,0825.2,5.00,000.00,018.2,017.8,000.0,026.7,020.0,19.8,0000.0,0006.93,0008.59,0006.77
2024-02-10 20:52:00,SystemResetWarning,0825.2,5.00,000.00,018.2,017.9,000.0,026.7,020.0,19.5,0000.0,0006.95,0008.61,0006.78
2024-02-10 20:53:00,SystemResetWarning,0825.3,5.00,000.00,018.3,017.8,000.0,026.7,020.0,19.6,0000.0,0006.96,0008.64,0006.79
2024-02-10 20:54:00,SystemResetWarning,0825.2,5.01,000.00,018.3,017.8,000.0,026.7,020.0,20.4,0000.0,0006.96,0008.61,0006.80
2024-02-10 20:55:00,SystemResetWarning,0825.2,4.99,000.00,018.3,017.9,000.0,026.7,020.0,20.6,0000.0,0006.96,0008.66,0006.80
2024-02-10 20:56:00,SystemResetWarning,0825.2,4.99,000.00,018.2,017.9,000.0,026.7,020.0,20.8,0000.0,0006.97,0008.59,0006.80
2024-02-10 20:57:00,SystemResetWarning,0825.2,5.00,000.00,018.3,017.9,000.0,026.7,020.0,20.5,0000.0,0006.97,0008.85,0006.80
2024-02-10 20:58:00,SystemResetWarning,0825.2,5.01,000.00,018.3,017.9,000.0,026.7,020.0,20.0,0000.0,0006.97,0009.28,0006.80
2024-02-10 20:59:00,SystemResetWarning,0825.2,5.01,000.00,018.2,017.9,000.0,026.7,020.0,19.8,0000.0,0006.97,0009.82,0006.82
